| time (UTC) | temp C | wind direction | speed KPH | gust KPH | rain 1hr cm | rain 24hr cm | rain mn cm | humidity % | barometer mb |
| 20260508010030 | 12 | 57 | 0.0 | 0.0 | 0.00 | 1.14 | 1.12 | 91 | 1012.8 |
| 20260508004513 | 12 | 57 | 0.0 | 0.0 | 0.00 | 1.14 | 1.12 | 91 | 1012.5 |
| 20260508003056 | 12 | 57 | 0.0 | 0.0 | 0.00 | 1.14 | 1.12 | 91 | 1012.5 |
| 20260508001544 | 12 | 57 | 0.0 | 0.0 | 0.00 | 1.14 | 1.12 | 90 | 1012.4 |
| 20260508000030 | 12 | 57 | 0.0 | 0.0 | 0.00 | 1.14 | 1.12 | 90 | 1012.4 |
| 20260507234519 | 12 | 57 | 0.0 | 0.0 | 0.00 | 1.14 | 1.12 | 90 | 1012.1 |
| 20260507233056 | 13 | 57 | 0.0 | 0.0 | 0.00 | 1.14 | 1.12 | 90 | 1011.5 |
| 20260507233008 | 13 | 57 | 0.0 | 0.0 | 0.00 | 1.14 | 1.12 | 90 | 1011.6 |
| 20260507231548 | 13 | 57 | 0.0 | 0.0 | 0.00 | 1.14 | 1.12 | 90 | 1011.3 |
| 20260507230036 | 13 | 57 | 0.0 | 0.0 | 0.00 | 1.14 | 1.12 | 90 | 1011.4 |
| 20260507224518 | 13 | 57 | 0.0 | 0.0 | 0.00 | 1.14 | 1.12 | 89 | 1011.3 |
| 20260507223013 | 13 | 57 | 0.0 | 0.0 | 0.00 | 1.14 | 1.12 | 90 | 1011.6 |
| 20260507221554 | 13 | 57 | 0.0 | 0.0 | 0.00 | 1.14 | 1.12 | 89 | 1011.7 |
| 20260507220044 | 13 | 57 | 0.0 | 0.0 | 0.00 | 1.14 | 1.12 | 90 | 1011.4 |
| 20260507214536 | 13 | 57 | 0.0 | 0.0 | 0.00 | 1.14 | 1.12 | 90 | 1011.3 |
| 20260507213016 | 13 | 57 | 0.0 | 0.0 | 0.00 | 1.14 | 1.12 | 90 | 1011.2 |
| 20260507211615 | 13 | 57 | 0.0 | 0.0 | 0.00 | 1.14 | 1.12 | 90 | 1011.2 |
| 20260507211504 | 13 | 57 | 0.0 | 0.0 | 0.00 | 1.14 | 1.12 | 90 | 1011.1 |
| 20260507210044 | 13 | 57 | 0.0 | 0.0 | 0.00 | 1.14 | 1.12 | 90 | 1011.3 |
| 20260507204533 | 13 | 57 | 0.0 | 0.0 | 0.00 | 1.14 | 1.12 | 90 | 1010.8 |
| 20260507203023 | 13 | 57 | 0.0 | 0.0 | 0.00 | 1.14 | 1.12 | 91 | 1010.9 |
| 20260507201505 | 12 | 57 | 0.0 | 0.0 | 0.00 | 1.14 | 1.12 | 91 | 1010.8 |
| 20260507200107 | 12 | 57 | 0.0 | 0.0 | 0.00 | 1.14 | 1.12 | 92 | 1011.1 |
| 20260507194544 | 12 | 57 | 0.0 | 0.0 | 0.00 | 1.19 | 1.12 | 92 | 1011.1 |
| 20260507193032 | 12 | 57 | 0.0 | 0.0 | 0.00 | 1.19 | 1.12 | 92 | 1011.4 |
| 20260507191518 | 13 | 57 | 0.0 | 0.0 | 0.00 | 1.19 | 1.12 | 92 | 1010.7 |
| 20260507190005 | 13 | 63 | 0.0 | 0.0 | 0.00 | 1.19 | 1.12 | 93 | 1010.3 |
| 20260507184547 | 13 | 57 | 0.0 | 0.0 | 0.00 | 1.32 | 1.12 | 92 | 1010.5 |
| 20260507183033 | 13 | 61 | 0.0 | 0.0 | 0.00 | 1.32 | 1.12 | 93 | 1010.3 |
| 20260507181528 | 13 | 61 | 0.0 | 0.0 | 0.00 | 1.32 | 1.12 | 93 | 1010.5 |
| 20260507180059 | 13 | 61 | 0.0 | 0.0 | 0.05 | 1.32 | 1.12 | 93 | 1010.1 |
| 20260507180002 | 13 | 60 | 0.0 | 0.0 | 0.05 | 1.32 | 1.12 | 93 | 1010.1 |
| 20260507174550 | 13 | 61 | 0.0 | 0.0 | 0.05 | 1.32 | 1.12 | 93 | 1011.3 |
| 20260507173032 | 14 | 61 | 0.0 | 0.0 | 0.05 | 1.32 | 1.12 | 92 | 1010.6 |
| 20260507171510 | 14 | 58 | 0.0 | 0.0 | 0.08 | 1.32 | 1.12 | 92 | 1010.0 |
| 20260507170100 | 15 | 58 | 0.0 | 0.0 | 0.03 | 1.27 | 1.07 | 92 | 1010.5 |
| 20260507164542 | 15 | 57 | 0.0 | 0.0 | 0.05 | 1.27 | 1.07 | 92 | 1010.4 |
| 20260507163017 | 16 | 57 | 0.0 | 0.0 | 0.08 | 1.27 | 1.07 | 92 | 1011.1 |
| 20260507161555 | 18 | 60 | 0.0 | 0.0 | 0.08 | 1.24 | 1.04 | 93 | 1010.6 |
| 20260507160043 | 19 | 276 | 0.0 | 0.0 | 0.13 | 1.24 | 1.04 | 94 | 1010.6 |
| 20260507154530 | 19 | 276 | 0.0 | 0.0 | 0.18 | 1.22 | 1.02 | 93 | 1010.1 |
| 20260507153013 | 19 | 276 | 0.0 | 0.0 | 0.20 | 1.19 | 0.99 | 94 | 1010.5 |
| 20260507151555 | 19 | 276 | 0.0 | 0.0 | 0.20 | 1.17 | 0.97 | 94 | 1010.4 |
| 20260507151501 | 19 | 276 | 0.0 | 0.0 | 0.20 | 1.17 | 0.97 | 94 | 1010.5 |
| 20260507150043 | 19 | 276 | 0.0 | 0.0 | 0.20 | 1.12 | 0.91 | 93 | 1010.7 |
| 20260507144534 | 20 | 276 | 0.0 | 0.0 | 0.18 | 1.04 | 0.84 | 94 | 1010.4 |
| 20260507143020 | 20 | 276 | 0.0 | 0.0 | 0.13 | 0.99 | 0.79 | 94 | 1010.5 |
| 20260507141505 | 20 | 276 | 0.0 | 0.0 | 0.10 | 0.97 | 0.76 | 94 | 1010.6 |
| 20260507140050 | 19 | 276 | 0.0 | 0.0 | 0.13 | 0.91 | 0.71 | 94 | 1010.8 |
| 20260507134541 | 19 | 276 | 0.0 | 0.0 | 0.08 | 0.86 | 0.66 | 94 | 1011.0 |
| 20260507133032 | 19 | 270 | 0.0 | 0.0 | 0.08 | 0.86 | 0.66 | 94 | 1010.7 |
| 20260507131513 | 19 | 282 | 0.0 | 0.0 | 0.05 | 0.84 | 0.66 | 94 | 1010.6 |
| 20260507130108 | 19 | 240 | 0.0 | 0.0 | 0.03 | 0.79 | 0.58 | 94 | 1010.9 |
| 20260507130001 | 18 | 239 | 0.0 | 0.0 | 0.03 | 0.79 | 0.58 | 94 | 1010.8 |
| 20260507124542 | 18 | 240 | 0.0 | 0.0 | 0.03 | 0.79 | 0.58 | 94 | 1010.8 |
| 20260507123032 | 18 | 239 | 0.0 | 0.0 | 0.08 | 0.79 | 0.58 | 94 | 1010.9 |
| 20260507121515 | 18 | 239 | 0.0 | 0.0 | 0.23 | 0.79 | 0.58 | 93 | 1011.1 |
| 20260507120105 | 18 | 240 | 0.0 | 0.0 | 0.23 | 0.76 | 0.56 | 93 | 1010.9 |
| 20260507120004 | 18 | 239 | 0.0 | 0.0 | 0.23 | 0.76 | 0.56 | 93 | 1010.8 |
| 20260507114624 | 18 | 239 | 0.0 | 0.0 | 0.28 | 0.76 | 0.56 | 93 | 1011.4 |
| 20260507113031 | 18 | 239 | 0.0 | 0.0 | 0.25 | 0.71 | 0.51 | 93 | 1011.4 |
| 20260507111518 | 18 | 239 | 0.0 | 0.0 | 0.10 | 0.56 | 0.36 | 93 | 1011.4 |
| 20260507110005 | 18 | 240 | 0.0 | 0.0 | 0.08 | 0.53 | 0.33 | 93 | 1011.1 |
| 20260507104547 | 18 | 240 | 0.0 | 0.0 | 0.03 | 0.48 | 0.28 | 93 | 1011.0 |
| 20260507103037 | 18 | 240 | 0.0 | 0.0 | 0.00 | 0.46 | 0.25 | 93 | 1010.9 |
| 20260507101523 | 18 | 239 | 0.0 | 0.0 | 0.00 | 0.46 | 0.25 | 93 | 1010.9 |
| 20260507100010 | 18 | 240 | 0.0 | 0.0 | 0.00 | 0.46 | 0.25 | 93 | 1011.0 |
| 20260507094552 | 18 | 239 | 0.0 | 0.0 | 0.00 | 0.46 | 0.25 | 93 | 1011.1 |
| 20260507093041 | 18 | 239 | 0.0 | 0.0 | 0.00 | 0.46 | 0.25 | 93 | 1010.9 |
| 20260507091600 | 18 | 240 | 0.0 | 0.0 | 0.00 | 0.46 | 0.25 | 93 | 1011.0 |
| 20260507090041 | 18 | 240 | 0.0 | 0.0 | 0.00 | 0.46 | 0.25 | 93 | 1011.1 |
| 20260507084517 | 18 | 240 | 0.0 | 0.0 | 0.00 | 0.46 | 0.25 | 93 | 1011.1 |
| 20260507083058 | 18 | 240 | 0.0 | 0.0 | 0.00 | 0.46 | 0.25 | 93 | 1011.5 |
| 20260507081543 | 18 | 240 | 0.0 | 0.0 | 0.00 | 0.46 | 0.25 | 93 | 1011.3 |
| 20260507080017 | 18 | 240 | 0.0 | 0.0 | 0.00 | 0.46 | 0.25 | 92 | 1011.7 |
| 20260507074554 | 18 | 240 | 0.0 | 0.0 | 0.00 | 0.46 | 0.25 | 92 | 1011.9 |
| 20260507073034 | 18 | 240 | 0.0 | 0.0 | 0.00 | 0.46 | 0.25 | 92 | 1012.0 |
| 20260507071513 | 18 | 239 | 0.0 | 0.0 | 0.00 | 0.46 | 0.25 | 92 | 1012.0 |
| 20260507070049 | 18 | 240 | 0.0 | 0.0 | 0.00 | 0.46 | 0.25 | 92 | 1011.8 |
| 20260507064530 | 18 | 240 | 0.0 | 0.0 | 0.03 | 0.46 | 0.25 | 92 | 1012.7 |
| 20260507063009 | 18 | 240 | 0.0 | 0.0 | 0.08 | 0.46 | 0.25 | 92 | 1012.5 |
| 20260507061550 | 18 | 240 | 0.0 | 0.0 | 0.10 | 0.46 | 0.25 | 92 | 1012.7 |
| 20260507060029 | 18 | 240 | 0.0 | 0.0 | 0.13 | 0.46 | 0.25 | 91 | 1012.5 |
| 20260507054516 | 18 | 240 | 0.0 | 0.0 | 0.20 | 0.43 | 0.23 | 91 | 1012.8 |
| 20260507053045 | 19 | 240 | 0.0 | 0.0 | 0.15 | 0.38 | 0.18 | 90 | 1012.5 |
| 20260507051524 | 19 | 239 | 0.0 | 0.0 | 0.13 | 0.36 | 0.15 | 89 | 1013.1 |
| 20260507050001 | 20 | 235 | 0.0 | 0.0 | 0.13 | 0.33 | 0.13 | 88 | 1012.0 |
| 20260507044536 | 20 | 251 | 0.0 | 0.0 | 0.05 | 0.25 | 0.05 | 88 | 1013.5 |
| 20260507043022 | 19 | 232 | 0.0 | 0.0 | 0.03 | 0.23 | 0.03 | 89 | 1014.2 |
| 20260507041554 | 19 | 232 | 0.0 | 0.0 | 0.05 | 0.23 | 0.03 | 89 | 1013.9 |
| 20260507040027 | 20 | 232 | 0.0 | 0.0 | 0.03 | 0.20 | 0.00 | 89 | 1013.4 |
| 20260507034505 | 20 | 232 | 0.0 | 0.0 | 0.03 | 0.20 | 0.20 | 88 | 1013.1 |
| 20260507033050 | 20 | 232 | 0.0 | 0.0 | 0.00 | 0.18 | 0.18 | 87 | 1013.3 |
| 20260507031528 | 20 | 232 | 0.0 | 0.0 | 0.00 | 0.18 | 0.18 | 87 | 1013.1 |
| 20260507030010 | 20 | 232 | 0.0 | 0.0 | 0.00 | 0.18 | 0.18 | 88 | 1012.9 |
| 20260507024603 | 20 | 232 | 0.0 | 0.0 | 0.00 | 0.18 | 0.18 | 87 | 1012.8 |
| 20260507023027 | 20 | 232 | 0.0 | 0.0 | 0.00 | 0.18 | 0.18 | 86 | 1012.7 |
| 20260507021508 | 20 | 232 | 0.0 | 0.0 | 0.00 | 0.18 | 0.18 | 86 | 1012.6 |
| 20260507020106 | 20 | 232 | 0.0 | 0.0 | 0.00 | 0.18 | 0.18 | 86 | 1012.8 |
| 20260507014531 | 20 | 232 | 0.0 | 0.0 | 0.00 | 0.18 | 0.18 | 85 | 1012.6 |
| 20260507013020 | 20 | 232 | 0.0 | 0.0 | 0.00 | 0.18 | 0.18 | 85 | 1012.8 |
| 20260507011554 | 20 | 232 | 0.0 | 0.0 | 0.00 | 0.18 | 0.18 | 84 | 1012.6 |